DELTA 1 DEB, 7940

Orbit data source: Space-Track

DELTA 1 DEB, 7940 is space debris in SSO originally from a launch on Sun, 23 Jul 1972 UTC launched from the Air Force Western Test Range (AFWTR). Debris objects in space refer to the collection of defunct objects orbiting the Earth. Examples of debris include non-operational satellites, rocket bodies, and fragments generated from explosions, collisions, or faulty payload assembly.

Loading next visibility...
Identifier
7940, 1972-058CF
Orbit
SSO
Country
Flag of USUS
Related business
Manufacturer
Unknown
Mission
Spacecraft
Bus & Motor
Unknown
Mass
Unknown
Launch date (UTC)
1972-07-23 (54 years ago)
Launch vehicle
Unknown
Launch site
Air Force Western Test Range (AFWTR)
Object type
Payload
Rocket body
Debris
Shape & HBR
Unknown shape, 0.2 m
Radar Cross Section
Small (<0.1 m²)

Expand to show TLE details & history
Last TLE update: 10 hours ago

TLE from 10 hours ago
0 DELTA 1 DEB
1  7940U 72058CF  26062.06959481  .00000749  00000-0  28811-3 0  9993
2  7940  97.9918 101.4479 0320714 204.1303 154.4559 14.08345627706063
Epoch: 2026-03-03T01:40Z
TLE epoch observation values (Epoch: 2026-03-03T01:40:12.991Z)
Latitude
-0.00005°
Longitude
-84.46017°
Altitude
1,078.922 km
Speed
7.205 km/s
True Right ascension
06h 45m 47s
True Declination
0° 00' 00"
Sunlit
Object was in daylight at epoch
Visualization orbit readout
Latitude
Unknown
Longitude
Unknown
Altitude
Unknown
Speed
Unknown
Apparent Right ascension
Unknown
Apparent Declination
Unknown
Sunlit
N/A
Visualization observer readout
Local Sidereal Time
15:17:33
Azimuth
Unknown
Elevation
Unknown
Doppler factor
Unknown
Orbital elements
Apogee altitude
1,094.382 km
Perigee altitude
629.969 km
Semi-major axis
7,240.312 km
Eccentricity
0.03207
Inclination
97.9918°
RAAN
101.4479°
Arg. of periapsis
204.1303°
True anomaly
155.98506°
Mean anomaly
154.4559°
Eccentric anomaly
155.22591°
Mean motion
3.52296 °/min
Orbital period
102.19 mins
BSTAR
0.00028811
Loading maneuver chart data...
Computing Atmospheric mass density...

Documentation

Showing up to 5 results
|